Balcidere, Turkey

4:38 AM +03 on November 19, 2018 (GMT +0300)
Balcidere

Weather History for 17295 - February, 2018

Change the Weather History Date:

Wednesday, February 14, 2018

  Actual Average Record
Temperature  
Mean Temperature 52 °F -  
Max Temperature 63 °F 60 °F - ()
Min Temperature 42 °F 42 °F - ()
Degree Days  
Heating Degree Days 12    
Growing Degree Days 2 (Base 50)    
Moisture  
Dew Point 42 °F    
Average Humidity 65    
Maximum Humidity 82    
Minimum Humidity 38    
Precipitation  
Precipitation 0.04 in - - ()
Sea Level Pressure  
Sea Level Pressure 30.02 in    
Wind  
Wind Speed 9 mph ()    
Max Wind Speed 25 mph    
Max Gust Speed -    
Visibility 6.2 miles    
Events Rain    
T = Trace of Precipitation, MM = Missing Value Source: Averaged Metar Reports

Daily Weather History Graph

Daily Weather History Graph

Search for Another Location

Airport or City:

Astronomy

Feb. 14, 2018 Rise Set
Actual Time 7:54 AM +03 6:44 PM +03
Civil Twilight 7:27 AM +03 7:10 PM +03
Nautical Twilight 6:57 AM +03 7:40 PM +03
Astronomical Twilight 6:27 AM +03 8:11 PM +03
Moon 6:58 AM +03 (2/14) 5:29 PM +03 (2/14)
Length of Visible Light 11h 42m
Length of Day
10h 49m
Waning Crescent, 2% of the Moon is Illuminated
Feb 14
Waning Crescent
Feb 16
New
Feb 23
First Quarter
Mar 2
Full
Mar 9
Last Quarter

Hourly Weather History & Observations

Time (+03) Temp. Windchill Dew Point Humidity Pressure Visibility Wind Dir Wind Speed Gust Speed Precip Events Conditions
12:00 AM 44 °F - 38 °F 71% 30.07 in 6 mi NE 4.6 mph - -   Scattered Clouds
12:20 AM 44.6 °F 41.4 °F 37.4 °F 76% 30.04 in 6.2 mi NE 5.8 mph - N/A   Mostly Cloudy
12:50 AM 42.8 °F 38.6 °F 37.4 °F 81% 30.04 in 6.2 mi NE 6.9 mph - N/A   Mostly Cloudy
1:20 AM 44.6 °F 41.4 °F 37.4 °F 76% 30.04 in 6.2 mi ENE 5.8 mph - N/A   Mostly Cloudy
1:50 AM 42.8 °F 38.6 °F 37.4 °F 81% 30.04 in 6.2 mi ENE 6.9 mph - N/A   Mostly Cloudy
2:20 AM 44.6 °F 41.4 °F 37.4 °F 76% 30.04 in 6.2 mi ENE 5.8 mph - N/A   Mostly Cloudy
2:50 AM 46.4 °F 42.9 °F 37.4 °F 71% 30.04 in 6.2 mi NNE 6.9 mph - N/A   Mostly Cloudy
3:00 AM 46 °F - 38 °F 64% 30.05 in 6 mi NNE 6.9 mph - -   Scattered Clouds
3:20 AM 44.6 °F 41.4 °F 37.4 °F 76% 30.04 in 6.2 mi ENE 5.8 mph - N/A   Mostly Cloudy
3:50 AM 44.6 °F 41.4 °F 37.4 °F 76% 30.04 in 6.2 mi NE 5.8 mph - N/A   Mostly Cloudy
4:20 AM 44.6 °F 41.4 °F 39.2 °F 81% 30.04 in 6.2 mi ENE 5.8 mph - N/A   Mostly Cloudy
4:50 AM 46.4 °F 42.9 °F 39.2 °F 76% 30.01 in 6.2 mi NNE 6.9 mph - N/A   Mostly Cloudy
5:20 AM 44.6 °F 41.4 °F 37.4 °F 76% 30.01 in 6.2 mi ENE 5.8 mph - N/A   Mostly Cloudy
5:50 AM 46.4 °F 42.4 °F 37.4 °F 71% 29.98 in 6.2 mi NNE 8.1 mph - N/A   Mostly Cloudy
6:00 AM 46 °F - 39 °F 67% 30.01 in 6 mi NNE 8.1 mph - -   Partly Cloudy
6:20 AM 50.0 °F - 39.2 °F 66% 29.98 in 6.2 mi ENE 9.2 mph - N/A   Mostly Cloudy
6:50 AM 53.6 °F - 39.2 °F 58% 29.98 in 6.2 mi East 12.7 mph - N/A   Mostly Cloudy
7:20 AM 53.6 °F - 42.8 °F 67% 29.98 in 6.2 mi East 12.7 mph - N/A Rain Light Rain Showers
7:50 AM 51.8 °F - 46.4 °F 82% 29.98 in 6.2 mi SE 11.5 mph - N/A Rain Light Rain Showers
8:20 AM 51.8 °F - 44.6 °F 76% 29.98 in 6.2 mi ESE 12.7 mph - N/A Rain Light Rain Showers
8:50 AM 53.6 °F - 46.4 °F 77% 29.98 in 6.2 mi SE 15.0 mph - N/A Rain Light Rain Showers
9:00 AM 54 °F - 45 °F 64% 30.00 in 6 mi SE 15.0 mph - - Rain Light Rain Showers
9:20 AM 53.6 °F - 44.6 °F 72% 29.98 in 6.2 mi SE 17.3 mph - N/A   Mostly Cloudy
9:50 AM 53.6 °F - 44.6 °F 72% 29.98 in 6.2 mi ESE 16.1 mph - N/A   Mostly Cloudy
10:20 AM 53.6 °F - 46.4 °F 77% 29.98 in 6.2 mi SE 18.4 mph - N/A   Mostly Cloudy
10:50 AM 57.2 °F - 48.2 °F 72% 29.98 in 6.2 mi SE 16.1 mph - N/A   Mostly Cloudy
11:20 AM 60.8 °F - 48.2 °F 63% 29.98 in 6.2 mi SSW 20.7 mph - N/A Rain Light Rain Showers
11:50 AM 57.2 °F - 50.0 °F 77% 30.01 in 6.2 mi West 25.3 mph - N/A Rain Light Rain Showers
12:00 PM 57 °F - 49 °F 68% 30.01 in 6 mi West 25.3 mph - - Rain Light Rain Showers
12:20 PM 55.4 °F - 50.0 °F 82% 30.01 in 6.2 mi West 18.4 mph - N/A Rain Light Rain Showers
12:50 PM 57.2 °F - 46.4 °F 67% 30.01 in 6.2 mi WNW 5.8 mph - N/A   Mostly Cloudy
1:20 PM 57.2 °F - 48.2 °F 72% 30.01 in 6.2 mi North 4.6 mph - N/A   Mostly Cloudy
1:50 PM 59.0 °F - 44.6 °F 59% 30.01 in 6.2 mi Variable 6.9 mph - N/A   Mostly Cloudy
2:20 PM 62.6 °F - 46.4 °F 55% 30.01 in 6.2 mi SW 13.8 mph - N/A   Mostly Cloudy
2:50 PM 62.6 °F - 44.6 °F 52% 30.01 in 6.2 mi WSW 17.3 mph - N/A   Mostly Cloudy
3:00 PM 62 °F - 43 °F 38% 30.01 in 6 mi WSW 17.3 mph - -   Partly Cloudy
3:20 PM 62.6 °F - 42.8 °F 48% 30.01 in 6.2 mi WSW 18.4 mph - N/A   Mostly Cloudy
3:50 PM 62.6 °F - 42.8 °F 48% 30.01 in 6.2 mi WSW 20.7 mph - N/A   Mostly Cloudy
4:20 PM 62.6 °F - 42.8 °F 48% 30.01 in 6.2 mi WSW 17.3 mph - N/A   Mostly Cloudy
4:50 PM 62.6 °F - 41.0 °F 45% 30.01 in 6.2 mi WSW 18.4 mph - N/A   Mostly Cloudy
5:20 PM 60.8 °F - 41.0 °F 48% 30.01 in 6.2 mi WSW 17.3 mph - N/A   Mostly Cloudy
5:50 PM 60.8 °F - 42.8 °F 52% 30.01 in 6.2 mi WSW 13.8 mph - N/A   Mostly Cloudy
6:00 PM 60 °F - 42 °F 41% 30.03 in 6 mi WSW 13.8 mph - -   Partly Cloudy
6:20 PM 60.8 °F - 41.0 °F 48% 30.04 in 6.2 mi WSW 12.7 mph - N/A   Mostly Cloudy
6:50 PM 59.0 °F - 41.0 °F 51% 30.04 in 6.2 mi WSW 15.0 mph - N/A   Mostly Cloudy
7:20 PM 59.0 °F - 41.0 °F 51% 30.04 in 6.2 mi WSW 13.8 mph - N/A   Mostly Cloudy
7:50 PM 59.0 °F - 39.2 °F 48% 30.04 in 6.2 mi WSW 10.4 mph - N/A   Mostly Cloudy
8:20 PM 59.0 °F - 41.0 °F 51% 30.04 in 6.2 mi WSW 9.2 mph - N/A   Scattered Clouds
8:50 PM 57.2 °F - 42.8 °F 59% 30.04 in 6.2 mi SW 10.4 mph - N/A   Scattered Clouds
9:00 PM 57 °F - 42 °F 46% 30.06 in 6 mi SW 10.4 mph - -   Partly Cloudy
9:20 PM 57.2 °F - 42.8 °F 59% 30.04 in 6.2 mi SW 8.1 mph - N/A   Scattered Clouds
9:50 PM 57.2 °F - 42.8 °F 59% 30.04 in 6.2 mi SW 9.2 mph - N/A   Scattered Clouds
10:20 PM 55.4 °F - 42.8 °F 63% 30.06 in 6.2 mi SW 9.2 mph - N/A   Scattered Clouds
10:50 PM 50.0 °F - 42.8 °F 76% 30.06 in 6.2 mi ENE 3.5 mph - N/A   Scattered Clouds
11:20 PM 53.6 °F - 44.6 °F 72% 30.06 in 6.2 mi ESE 5.8 mph - N/A   Scattered Clouds
11:50 PM 53.6 °F - 44.6 °F 72% 30.06 in 6.2 mi ESE 9.2 mph - N/A   Scattered Clouds